Alexandria, MN

9:41 AM CST on February 22, 2018 (GMT -0600)
Chandler

Weather History for KAXN - August, 2013

Change the Weather History Date:

Saturday, August 17, 2013

  Actual Average Record
Temperature  
Mean Temperature 68 °F -  
Max Temperature 81 °F 80 °F 93 °F (1971)
Min Temperature 57 °F 59 °F 46 °F (1950)
Cooling Degree Days 4    
Growing Degree Days 18 (Base 50)    
Moisture  
Dew Point 58 °F    
Average Humidity 67    
Maximum Humidity 90    
Minimum Humidity 48    
Precipitation  
Precipitation 0.00 in - - ()
Sea Level Pressure  
Sea Level Pressure 30.12 in    
Wind  
Wind Speed 10 mph (South)    
Max Wind Speed 20 mph    
Max Gust Speed 25 mph    
Visibility 10 miles    
Events      
Averages and records for this station are not official NWS values.
T = Trace of Precipitation, MM = Missing Value Source: NWS Daily Summary

Daily Weather History Graph

Daily Weather History Graph

Search for Another Location

Airport or City:

Trip Planner

Search our weather history database for the weather conditions in past years. The results will help you decide how hot, cold, wet, or windy it might be!

Date:

Astronomy

Aug. 17, 2013 Rise Set
Actual Time 6:24 AM CDT 8:26 PM CDT
Civil Twilight 5:51 AM CDT 8:58 PM CDT
Nautical Twilight 5:12 AM CDT 9:37 PM CDT
Astronomical Twilight 4:27 AM CDT 10:21 PM CDT
Moon 5:47 PM CDT (8/17) 2:22 AM CDT (8/17)
Length of Visible Light 15h 06m
Length of Day
14h 01m
Waxing Gibbous, 84% of the Moon is Illuminated
Aug 17
Waxing Gibbous
Aug 20
Full
Aug 28
Last Quarter
Sep 5
New
Sep 12
First Quarter

Hourly Weather History & Observations

Time (CDT) Temp. Heat Index Dew Point Humidity Pressure Visibility Wind Dir Wind Speed Gust Speed Precip Events Conditions
12:53 AM 63.0 °F - 57.0 °F 81% 30.17 in 10.0 mi South 8.1 mph - N/A   Clear
1:53 AM 62.1 °F - 55.9 °F 80% 30.16 in 10.0 mi South 5.8 mph - N/A   Clear
2:53 AM 61.0 °F - 55.9 °F 83% 30.15 in 10.0 mi South 5.8 mph - N/A   Clear
3:53 AM 61.0 °F - 55.9 °F 83% 30.15 in 10.0 mi South 6.9 mph - N/A   Clear
4:53 AM 60.1 °F - 55.9 °F 86% 30.16 in 10.0 mi South 6.9 mph - N/A   Clear
5:53 AM 57.9 °F - 55.0 °F 90% 30.15 in 10.0 mi SSE 5.8 mph - N/A   Clear
6:53 AM 57.9 °F - 55.0 °F 90% 30.16 in 10.0 mi SSE 5.8 mph - N/A   Scattered Clouds
7:53 AM 63.0 °F - 57.0 °F 81% 30.16 in 10.0 mi South 9.2 mph - N/A   Partly Cloudy
8:53 AM 66.0 °F - 57.0 °F 73% 30.16 in 10.0 mi South 11.5 mph - N/A   Partly Cloudy
9:53 AM 70.0 °F - 57.0 °F 63% 30.16 in 10.0 mi SSW 11.5 mph - N/A   Clear
10:53 AM 73.0 °F - 57.0 °F 57% 30.16 in 10.0 mi SSW 17.3 mph 23.0 mph N/A   Clear
11:53 AM 75.9 °F - 57.9 °F 54% 30.14 in 10.0 mi South 13.8 mph - N/A   Clear
12:53 PM 77.0 °F - 59.0 °F 54% 30.13 in 10.0 mi South 16.1 mph 23.0 mph N/A   Clear
1:53 PM 79.0 °F - 59.0 °F 50% 30.11 in 10.0 mi South 15.0 mph 21.9 mph N/A   Partly Cloudy
2:53 PM 80.1 °F 80.7 °F 59.0 °F 48% 30.09 in 10.0 mi SSW 13.8 mph 25.3 mph N/A   Scattered Clouds
3:53 PM 79.0 °F - 59.0 °F 50% 30.09 in 10.0 mi South 19.6 mph 24.2 mph N/A   Scattered Clouds
4:53 PM 79.0 °F - 59.0 °F 50% 30.08 in 10.0 mi South 18.4 mph - N/A   Partly Cloudy
5:53 PM 79.0 °F - 59.0 °F 50% 30.08 in 10.0 mi South 13.8 mph - N/A   Partly Cloudy
6:53 PM 77.0 °F - 60.1 °F 56% 30.09 in 10.0 mi South 11.5 mph 21.9 mph N/A   Clear
7:53 PM 75.0 °F - 60.1 °F 60% 30.08 in 10.0 mi South 12.7 mph - N/A   Clear
8:53 PM 72.0 °F - 60.1 °F 66% 30.07 in 10.0 mi South 10.4 mph - N/A   Clear
9:53 PM 70.0 °F - 59.0 °F 68% 30.07 in 10.0 mi South 10.4 mph - N/A   Clear
10:53 PM 70.0 °F - 59.0 °F 68% 30.06 in 10.0 mi South 12.7 mph - N/A   Clear
11:53 PM 69.1 °F - 59.0 °F 70% 30.07 in 10.0 mi South 11.5 mph - N/A   Clear